• en France
  • Liste des pays
  • À 7 jours
  • Température de l'eau
  • Carte satellitaire
  • Carte météo
  • Widgets météo
  • user-avatar
    Se connecter

    Météo par heure à Batna

    Ce jour, 21 Juin, Jeudi

    Heure Température Précipitation Vent Pression Humidité
    00:00 +21°C° 0 mm 2 m/s 673 mmHg 52%
    01:00 +21°C° 0 mm 2 m/s 673 mmHg 53%
    02:00 +20°C° 0 mm 2 m/s 673 mmHg 53%
    03:00 +20°C° 0 mm 2 m/s 673 mmHg 54%
    04:00 +20°C° 0 mm 2 m/s 673 mmHg 53%
    05:00 +21°C° 0 mm 3 m/s 673 mmHg 51%
    06:00 +21°C° 0 mm 3 m/s 673 mmHg 50%
    07:00 +22°C° 0 mm 3 m/s 674 mmHg 46%
    08:00 +24°C° 0 mm 3 m/s 674 mmHg 42%
    09:00 +25°C° 0 mm 4 m/s 674 mmHg 38%
    10:00 +26°C° 0 mm 4 m/s 674 mmHg 36%
    11:00 +27°C° 0 mm 4 m/s 674 mmHg 33%
    12:00 +28°C° 0 mm 4 m/s 674 mmHg 31%
    13:00 +28°C° 0 mm 4 m/s 674 mmHg 31%
    14:00 +28°C° 0 mm 4 m/s 674 mmHg 31%
    15:00 +28°C° 0 mm 4 m/s 673 mmHg 31%
    16:00 +28°C° 0 mm 3 m/s 673 mmHg 31%
    17:00 +28°C° 0 mm 3 m/s 673 mmHg 32%
    18:00 +27°C° 0 mm 3 m/s 673 mmHg 32%
    19:00 +26°C° 0 mm 3 m/s 673 mmHg 35%
    20:00 +26°C° 0 mm 3 m/s 673 mmHg 38%
    21:00 +25°C° 0 mm 2 m/s 673 mmHg 41%
    22:00 +24°C° 0 mm 2 m/s 673 mmHg 43%
    23:00 +23°C° 0 mm 2 m/s 673 mmHg 46%

    Demain, 22 Juin, Vendredi

    Heure Température Précipitation Vent Pression Humidité
    00:00 +23°C° 0 mm 2 m/s 672 mmHg 48%
    01:00 +21°C° 0 mm 2 m/s 672 mmHg 50%
    02:00 +21°C° 0 mm 2 m/s 672 mmHg 53%
    03:00 +20°C° 0 mm 2 m/s 672 mmHg 55%
    04:00 +21°C° 0 mm 2 m/s 672 mmHg 53%
    05:00 +23°C° 0 mm 2 m/s 672 mmHg 50%
    06:00 +23°C° 0 mm 2 m/s 673 mmHg 48%
    07:00 +25°C° 0 mm 3 m/s 673 mmHg 42%
    08:00 +26°C° 0 mm 4 m/s 674 mmHg 36%
    09:00 +28°C° 0 mm 4 m/s 674 mmHg 31%
    10:00 +29°C° 0 mm 5 m/s 674 mmHg 29%
    11:00 +30°C° 0 mm 5 m/s 674 mmHg 26%
    12:00 +32°C° 0 mm 5 m/s 674 mmHg 24%
    13:00 +32°C° 0 mm 5 m/s 674 mmHg 23%
    14:00 +32°C° 0 mm 4 m/s 674 mmHg 22%
    15:00 +33°C° 0 mm 4 m/s 673 mmHg 21%
    16:00 +32°C° 0 mm 4 m/s 673 mmHg 24%
    17:00 +32°C° 0 mm 4 m/s 673 mmHg 27%
    18:00 +30°C° 0 mm 5 m/s 673 mmHg 30%
    19:00 +29°C° 0 mm 4 m/s 673 mmHg 36%
    20:00 +27°C° 0 mm 3 m/s 673 mmHg 42%
    21:00 +26°C° 0 mm 3 m/s 674 mmHg 48%
    22:00 +25°C° 0 mm 2 m/s 673 mmHg 50%
    23:00 +25°C° 0 mm 2 m/s 673 mmHg 53%

    Après-demain, 23 Juin, Samedi

    Heure Température Précipitation Vent Pression Humidité
    00:00 +24°C° 0 mm 2 m/s 673 mmHg 55%
    01:00 +23°C° 0 mm 2 m/s 673 mmHg 56%
    02:00 +23°C° 0 mm 2 m/s 672 mmHg 57%
    03:00 +21°C° 0 mm 2 m/s 672 mmHg 58%
    04:00 +23°C° 0 mm 1 m/s 672 mmHg 54%
    05:00 +24°C° 0 mm 1 m/s 673 mmHg 50%
    06:00 +25°C° 0 mm 1 m/s 673 mmHg 47%
    07:00 +26°C° 0 mm 1 m/s 674 mmHg 41%
    08:00 +28°C° 0 mm 2 m/s 674 mmHg 36%
    09:00 +29°C° 0 mm 2 m/s 674 mmHg 31%
    10:00 +30°C° 0 mm 3 m/s 675 mmHg 28%
    11:00 +33°C° 0 mm 3 m/s 675 mmHg 25%
    12:00 +34°C° 0 mm 4 m/s 675 mmHg 22%
    13:00 +34°C° 0 mm 4 m/s 675 mmHg 21%
    14:00 +35°C° 0 mm 5 m/s 674 mmHg 20%
    15:00 +35°C° 0 mm 5 m/s 674 mmHg 20%
    16:00 +34°C° 0,2 mm 5 m/s 674 mmHg 22%
    17:00 +33°C° 0,2 mm 5 m/s 674 mmHg 24%
    18:00 +32°C° 0,2 mm 6 m/s 674 mmHg 26%
    19:00 +30°C° 0,7 mm 4 m/s 674 mmHg 31%
    20:00 +28°C° 0,7 mm 3 m/s 674 mmHg 36%
    21:00 +26°C° 0,7 mm 2 m/s 674 mmHg 41%
    22:00 +26°C° 0 mm 2 m/s 674 mmHg 43%
    23:00 +26°C° 0 mm 2 m/s 673 mmHg 44%

    24 Juin, Dimanche

    Heure Température Précipitation Vent Pression Humidité
    00:00 +25°C° 0 mm 2 m/s 673 mmHg 45%
    01:00 +25°C° 0 mm 1 m/s 672 mmHg 46%
    02:00 +25°C° 0 mm 1 m/s 672 mmHg 47%
    03:00 +22°C° 0 mm 0 m/s 672 mmHg 48%
    04:00 +23°C° 0 mm 0 m/s 672 mmHg 46%
    05:00 +25°C° 0 mm 1 m/s 672 mmHg 43%
    06:00 +26°C° 0 mm 1 m/s 673 mmHg 40%
    07:00 +28°C° 0 mm 1 m/s 673 mmHg 36%
    08:00 +29°C° 0 mm 2 m/s 673 mmHg 31%
    09:00 +31°C° 0 mm 3 m/s 674 mmHg 26%
    10:00 +33°C° 0 mm 4 m/s 674 mmHg 24%
    11:00 +34°C° 0 mm 4 m/s 674 mmHg 22%
    12:00 +35°C° 0 mm 5 m/s 674 mmHg 19%
    13:00 +35°C° 0 mm 5 m/s 674 mmHg 19%
    14:00 +36°C° 0 mm 5 m/s 673 mmHg 18%
    15:00 +36°C° 0 mm 5 m/s 673 mmHg 17%
    16:00 +35°C° 0 mm 5 m/s 673 mmHg 19%
    17:00 +34°C° 0 mm 5 m/s 672 mmHg 21%
    18:00 +33°C° 0 mm 5 m/s 672 mmHg 23%
    19:00 +32°C° 0 mm 4 m/s 672 mmHg 27%
    20:00 +29°C° 0 mm 4 m/s 672 mmHg 30%
    21:00 +28°C° 0 mm 3 m/s 672 mmHg 34%
    22:00 +27°C° 0 mm 3 m/s 672 mmHg 35%
    23:00 +27°C° 0 mm 3 m/s 671 mmHg 37%

    25 Juin, Lundi

    Heure Température Précipitation Vent Pression Humidité
    00:00 +26°C° 0 mm 2 m/s 671 mmHg 38%
    01:00 +26°C° 0 mm 2 m/s 670 mmHg 39%
    02:00 +25°C° 0 mm 2 m/s 670 mmHg 40%
    03:00 +25°C° 0 mm 1 m/s 670 mmHg 40%
    04:00 +25°C° 0 mm 1 m/s 670 mmHg 37%
    05:00 +26°C° 0 mm 1 m/s 671 mmHg 35%
    06:00 +27°C° 0 mm 1 m/s 671 mmHg 32%
    07:00 +28°C° 0 mm 1 m/s 671 mmHg 29%
    08:00 +29°C° 0 mm 1 m/s 672 mmHg 26%
    09:00 +31°C° 0 mm 2 m/s 672 mmHg 23%
    10:00 +32°C° 0 mm 2 m/s 672 mmHg 21%
    11:00 +34°C° 0 mm 3 m/s 672 mmHg 20%
    12:00 +35°C° 0 mm 3 m/s 672 mmHg 18%
    13:00 +35°C° 0 mm 4 m/s 672 mmHg 18%
    14:00 +35°C° 0 mm 5 m/s 672 mmHg 18%
    15:00 +36°C° 0 mm 5 m/s 672 mmHg 17%
    16:00 +35°C° 0 mm 5 m/s 672 mmHg 21%
    17:00 +33°C° 0 mm 6 m/s 672 mmHg 24%
    18:00 +32°C° 0 mm 6 m/s 672 mmHg 28%
    19:00 +30°C° 0 mm 5 m/s 672 mmHg 32%
    20:00 +28°C° 0 mm 4 m/s 672 mmHg 36%
    21:00 +27°C° 0 mm 4 m/s 672 mmHg 40%
    22:00 +26°C° 0 mm 3 m/s 672 mmHg 41%
    23:00 +26°C° 0 mm 3 m/s 672 mmHg 43%

    26 Juin, Mardi

    Heure Température Précipitation Vent Pression Humidité
    00:00 +25°C° 0 mm 2 m/s 671 mmHg 45%
    01:00 +24°C° 0 mm 2 m/s 671 mmHg 47%
    02:00 +24°C° 0 mm 1 m/s 671 mmHg 48%
    03:00 +23°C° 0 mm 1 m/s 671 mmHg 50%
    04:00 +23°C° 0 mm 1 m/s 671 mmHg 48%
    05:00 +23°C° 0 mm 1 m/s 671 mmHg 47%
    06:00 +23°C° 0 mm 1 m/s 671 mmHg 46%
    07:00 +25°C° 0 mm 1 m/s 672 mmHg 42%
    08:00 +26°C° 0 mm 1 m/s 672 mmHg 39%
    09:00 +27°C° 0 mm 2 m/s 672 mmHg 35%
    10:00 +29°C° 0 mm 3 m/s 672 mmHg 31%
    11:00 +30°C° 0 mm 3 m/s 673 mmHg 28%
    12:00 +32°C° 0 mm 4 m/s 673 mmHg 25%
    13:00 +33°C° 0 mm 5 m/s 673 mmHg 23%
    14:00 +34°C° 0 mm 5 m/s 673 mmHg 21%
    15:00 +34°C° 0 mm 6 m/s 673 mmHg 20%
    16:00 +33°C° 0 mm 6 m/s 672 mmHg 22%
    17:00 +32°C° 0 mm 6 m/s 672 mmHg 25%
    18:00 +30°C° 0 mm 6 m/s 672 mmHg 27%
    19:00 +29°C° 0 mm 5 m/s 672 mmHg 31%
    20:00 +28°C° 0 mm 4 m/s 672 mmHg 35%
    21:00 +26°C° 0 mm 3 m/s 673 mmHg 39%
    22:00 +26°C° 0 mm 3 m/s 672 mmHg 40%
    23:00 +25°C° 0 mm 2 m/s 672 mmHg 42%
    Voir plus